Location: Darmstadt
(49.8706°N, 8.6494°E)
Time: 07:30:04
(UTC+01:00)

H-2A R/B - Pass Details

Date: 31 October 2020
Orbit: 577 x 656 km, 98.5° (Epoch: 03 December)

Event Time Altitude Azimuth Distance (km) Brightness Sun altitude
Rises 18:31:26 0° 6° (N) 2,841 5.3 -14.6°
Reaches altitude 10° 18:33:50 10° 354° (N) 1,924 4.6 -14.9°
Maximum altitude 18:37:21 27° 296° (WNW) 1,132 4.1 -15.5°
Drops below altitude 10° 18:40:49 10° 238° (WSW) 1,892 5.5 -16.1°
Sets 18:43:10 0° 227° (SW) 2,784 6.2 -16.4°
